Weather History for Panama City, FL

Change the Weather History Date:

Wednesday, September 18, 2013

  Actual Average Record
Temperature  
Mean Temperature 80 °F -  
Max Temperature 88 °F - 93 °F (2010)
Min Temperature 72 °F - 66 °F (2011)
Degree Days  
Heating Degree Days 0    
Cooling Degree Days 15    
Growing Degree Days 30 (Base 50)    
Moisture  
Dew Point 73 °F    
Average Humidity 80    
Maximum Humidity 100    
Minimum Humidity 59    
Precipitation  
Precipitation T in - 0.00 in (2014)
Month to date precipitation  
Year to date precipitation  
Sea Level Pressure  
Sea Level Pressure 30.08 in    
Wind  
Wind Speed 7 mph (NE)    
Max Wind Speed 15 mph    
Max Gust Speed 30 mph    
Visibility 10 miles    
Events      
T = Trace of Precipitation, MM = Missing Value Source: NWS Daily Summary

Daily Weather History Graph

Daily Weather History Graph

Search for Another Location

Airport:

Trip Planner

Search our weather history database for the weather conditions in past years. The results will help you decide how hot, cold, wet, or windy it might be!

Date:

Astronomy

Sep. 18, 2013 Rise Set
Actual Time 7:29 AM EDT 7:44 PM EDT
Civil Twilight 7:05 AM EDT 8:08 PM EDT
Nautical Twilight 6:37 AM EDT 8:36 PM EDT
Astronomical Twilight 6:08 AM EDT 9:04 PM EDT
Moon 7:08 PM EDT (9/18) 6:32 AM EDT (9/18)
Length of Visible Light 13h 03m
Length of Day
12h 15m
Waxing Gibbous, 99% of the Moon is Illuminated
Sep 18
Waxing Gibbous
Sep 19
Full
Sep 26
Last Quarter
Oct 4
New
Oct 11
First Quarter

Hourly Weather History & Observations

Time (EDT) Temp. Heat Index Dew Point Humidity Pressure Visibility Wind Dir Wind Speed Gust Speed Precip Events Conditions
12:53 AM 75.9 °F - 75.0 °F 97% 30.09 in 10.0 mi NNE 5.8 mph - N/A   Clear
1:53 AM 75.9 °F - 73.9 °F 94% 30.09 in 10.0 mi ENE 5.8 mph - N/A   Clear
2:53 AM 75.0 °F - 73.0 °F 94% 30.08 in 10.0 mi NE 4.6 mph - N/A   Clear
3:53 AM 73.9 °F - 73.0 °F 97% 30.08 in 10.0 mi NE 5.8 mph - N/A   Clear
4:53 AM 73.9 °F - 73.0 °F 97% 30.07 in 10.0 mi NE 5.8 mph - N/A   Clear
5:53 AM 73.0 °F - 73.0 °F 100% 30.07 in 10.0 mi NE 8.1 mph - N/A   Clear
6:53 AM 73.0 °F - 72.0 °F 96% 30.08 in 10.0 mi NE 6.9 mph - N/A   Clear
7:53 AM 72.0 °F - 72.0 °F 100% 30.10 in 9.0 mi NE 6.9 mph - N/A   Clear
8:53 AM 75.0 °F - 71.1 °F 87% 30.11 in 10.0 mi NE 11.5 mph - N/A   Clear
9:53 AM 77.0 °F - 71.1 °F 82% 30.12 in 10.0 mi ENE 10.4 mph 24.2 mph N/A   Scattered Clouds
10:53 AM 80.1 °F 83.8 °F 72.0 °F 76% 30.12 in 10.0 mi NE 9.2 mph 19.6 mph N/A   Scattered Clouds
11:53 AM 84.0 °F 90.2 °F 73.0 °F 69% 30.11 in 10.0 mi ENE 11.5 mph 19.6 mph N/A   Partly Cloudy
12:53 PM 84.9 °F 90.7 °F 72.0 °F 65% 30.09 in 10.0 mi NE 11.5 mph 18.4 mph N/A   Scattered Clouds
1:53 PM 86.0 °F 93.0 °F 73.0 °F 65% 30.09 in 10.0 mi ENE 8.1 mph - N/A   Scattered Clouds
2:53 PM 87.1 °F 93.6 °F 72.0 °F 61% 30.07 in 10.0 mi ENE 9.2 mph - 0.00 in   Scattered Clouds
3:53 PM 87.1 °F 93.6 °F 72.0 °F 61% 30.05 in 10.0 mi NE 8.1 mph - N/A   Scattered Clouds
4:53 PM 87.1 °F 93.6 °F 72.0 °F 61% 30.05 in 10.0 mi ENE 9.2 mph - N/A   Partly Cloudy
5:53 PM 84.0 °F 90.2 °F 73.0 °F 69% 30.04 in 10.0 mi ENE 6.9 mph 23.0 mph N/A   Mostly Cloudy
6:53 PM 82.9 °F 89.4 °F 73.9 °F 74% 30.05 in 10.0 mi ENE 4.6 mph - N/A   Partly Cloudy
7:53 PM 78.1 °F - 75.0 °F 90% 30.07 in 10.0 mi ENE 4.6 mph - 0.00 in   Mostly Cloudy
8:53 PM 78.1 °F - 75.0 °F 90% 30.08 in 10.0 mi Calm Calm - N/A   Clear
9:53 PM 78.1 °F - 75.0 °F 90% 30.09 in 10.0 mi NE 5.8 mph - N/A   Overcast
10:53 PM 78.1 °F - 73.9 °F 87% 30.10 in 10.0 mi East 3.5 mph - N/A   Overcast
11:53 PM 75.9 °F - 73.9 °F 94% 30.09 in 10.0 mi ENE 6.9 mph - N/A   Clear